Tapachula Airport, Mexico

9:24 PM CDT on August 18, 2017 (GMT -0500)
Tapachula International

Weather History for MMTP - November, 2012

Change the Weather History Date:

Sunday, November 25, 2012

  Actual Average Record
Temperature  
Mean Temperature 80 °F -  
Max Temperature 86 °F 86 °F 89 °F (1997)
Min Temperature 75 °F 72 °F 69 °F (2006)
Cooling Degree Days 16    
Growing Degree Days 30 (Base 50)    
Moisture  
Dew Point 73 °F    
Average Humidity 78    
Maximum Humidity 89    
Minimum Humidity 62    
Precipitation  
Precipitation 0.00 in - - ()
Sea Level Pressure  
Sea Level Pressure 29.90 in    
Wind  
Wind Speed 3 mph ()    
Max Wind Speed 12 mph    
Max Gust Speed -    
Visibility 9.6 miles    
Events      
Averages and records for this station are not official NWS values.
T = Trace of Precipitation, MM = Missing Value Source: Averaged Metar Reports

Daily Weather History Graph

Daily Weather History Graph

Search for Another Location

Airport or City:

Trip Planner

Search our weather history database for the weather conditions in past years. The results will help you decide how hot, cold, wet, or windy it might be!

Date:

Astronomy

Nov. 25, 2012 Rise Set
Actual Time 6:15 AM CST 5:36 PM CST
Civil Twilight 5:53 AM CST 5:59 PM CST
Nautical Twilight 5:26 AM CST 6:26 PM CST
Astronomical Twilight 5:00 AM CST 6:52 PM CST
Moon 3:39 PM CST (11/25) 3:48 AM CST (11/25)
Length of Visible Light 12h 06m
Length of Day
11h 20m
Waxing Gibbous, 93% of the Moon is Illuminated
Nov 25
Waxing Gibbous
Nov 28
Full
Dec 6
Last Quarter
Dec 13
New
Dec 19
First Quarter

Hourly Weather History & Observations

Time (CST) Temp. Heat Index Dew Point Humidity Pressure Visibility Wind Dir Wind Speed Gust Speed Precip Events Conditions
12:40 AM 77.0 °F - 73.4 °F 89% 29.94 in 10.0 mi Calm Calm - N/A   Mostly Cloudy
1:40 AM 77.0 °F - 73.4 °F 89% 29.94 in 8.0 mi Calm Calm - N/A   Mostly Cloudy
2:40 AM 75.2 °F - 71.6 °F 89% 29.87 in 10.0 mi Calm Calm - N/A   Mostly Cloudy
4:40 AM 77.0 °F - 73.4 °F 89% 29.90 in 8.0 mi Calm Calm - N/A   Partly Cloudy
5:40 AM 75.2 °F - 71.6 °F 89% 29.91 in 8.0 mi Calm Calm - N/A   Partly Cloudy
6:40 AM 75.2 °F - 71.6 °F 89% 29.90 in 8.0 mi Calm Calm - N/A   Scattered Clouds
7:53 AM 78.8 °F - 73.4 °F 83% 29.94 in 10.0 mi NNE 8.1 mph - N/A   Scattered Clouds
8:45 AM 82.4 °F 88.2 °F 73.4 °F 74% 29.88 in 10.0 mi Calm Calm - N/A   Scattered Clouds
9:40 AM 86.0 °F 93.4 °F 73.4 °F 66% 29.94 in 10.0 mi WSW 6.9 mph - N/A   Mostly Cloudy
10:40 AM 84.2 °F 89.6 °F 71.6 °F 66% 29.96 in 10.0 mi WSW 6.9 mph - N/A   Mostly Cloudy
11:45 AM 86.0 °F 93.4 °F 73.4 °F 66% 29.89 in 10.0 mi WSW 9.2 mph - N/A   Mostly Cloudy
12:45 PM 86.0 °F 91.8 °F 71.6 °F 62% 29.90 in 10.0 mi WSW 9.2 mph - N/A   Mostly Cloudy
1:40 PM 84.2 °F 90.9 °F 73.4 °F 70% 29.90 in 10.0 mi WSW 9.2 mph - N/A   Scattered Clouds
3:10 PM 84.2 °F 90.9 °F 73.4 °F 70% 29.87 in 10.0 mi WSW 11.5 mph - N/A   Scattered Clouds
3:40 PM 84.2 °F 90.9 °F 73.4 °F 70% 29.87 in 10.0 mi WSW 8.1 mph - N/A   Scattered Clouds
4:40 PM 84.2 °F 90.9 °F 73.4 °F 70% 29.86 in 10.0 mi West 11.5 mph - N/A   Scattered Clouds
5:40 PM 80.6 °F 85.4 °F 73.4 °F 79% 29.83 in 10.0 mi Calm Calm - N/A   Scattered Clouds
6:40 PM 80.6 °F 85.4 °F 73.4 °F 79% 29.89 in 10.0 mi Calm Calm - N/A   Scattered Clouds
7:40 PM 78.8 °F - 73.4 °F 83% 29.89 in 10.0 mi Calm Calm - N/A   Scattered Clouds
8:40 PM 78.8 °F - 73.4 °F 83% 29.84 in 10.0 mi Calm Calm - N/A   Scattered Clouds
10:40 PM 78.8 °F - 73.4 °F 83% 29.95 in 10.0 mi Calm Calm - N/A   Scattered Clouds
11:40 PM 78.8 °F - 71.6 °F 78% 29.91 in 10.0 mi Calm Calm - N/A   Scattered Clouds